Kuiper-00196

operational
NORAD ID: 67144 Int'l Des: 2025-301 Owner: KUIP Country: US Constellation: kuiper
LEOCIRCULAR

About Kuiper-00196

Description loading...

Live Position

Loading 3D Globe...

Upcoming Passes

Altitude History

Altitude vs Time

uPlot chart will show altitude changes over time

Two-Line Element Set

1 67144U 25301M 26014.16881835 .00021096 00000-0 58935-3 0 9997
2 67144 51.8731 328.5949 0003763 148.4862 211.6351 15.36651831 5352
Epoch: Jan 14, 2026 • Age: 12 hours

Current Status

Altitude 460.8 km
Velocity 7.64 km/s
Sub-Earth Point -9.22°S, 42.65°W
Launch Date Dec 16, 2025
Age 29 days
Type internet

Technical Details

Classification Payload
Mass 490.00 kg
Dry Mass 490.00 kg
Total Mass 490.00 kg
Length 1.80 m
Diameter 0.70 m
Span 5.00 m
Shape Box + 2 pan
Manufacturer KUIP
Bus Type Kuiper
Phase Status In Orbit
Owner/State KUIP/US

Large Constellations

Loading constellations...